Regional Weather Roundup
Issued by NWS

Home | Current Version | Previous Version | Text Only | Print | Product List | Glossary Off
Versions: 1 2 3 4 5 6 7 8 9 10 11 12 13 14 15 16 17 18 19 20 21 22 23 24 25 26 27 28 29 30 31 32 33 34 35 36 37 38 39 40 41 42 43 44 45 46 47 48 49 50

000
ASUS43 KOAX 302202
RWRNE

WEATHER ROUNDUP FOR NEBRASKA
NATIONAL WEATHER SERVICE OMAHA NE
400 PM CST FRI JAN 30 2015

NOTES: SATELLITE DATA IS BEING USED TO AUGMENT CLOUD COVER ABOVE
       12000 FEET.
       "FAIR" INDICATES FEW OR NO CLOUDS BELOW 12,000 FEET WITH NO
       SIGNIFICANT WEATHER AND/OR OBSTRUCTIONS TO VISIBILITY.

  * THESE STATIONS DO NOT REPORT WEATHER SUCH AS RAIN...SNOW OR FOG.

NEZ001>004-019>022-054>056-302300-
NEBRASKA PANHANDLE

CITY           SKY/WX    TMP DP  RH WIND       PRES   REMARKS
SCOTTSBLUFF    CLOUDY    43  28  55 NW6       30.10F
ALLIANCE       CLOUDY    46  27  47 N8        30.10F
CHADRON        PTSUNNY   51  25  36 NE10      30.12F
SIDNEY         CLOUDY    46  28  49 N3        30.09F
$$

NEZ057>060-069>072-079>082-302300-
SOUTHWEST NEBRASKA

CITY           SKY/WX    TMP DP  RH WIND       PRES   REMARKS
NORTH PLATTE   CLOUDY    47  27  45 S14       30.15F
IMPERIAL       CLOUDY    50  30  46 S22G30    30.13F
MCCOOK         CLOUDY    48  29  47 S20G26    30.21S
$$

NEZ005>010-023>029-035>040-094-302300-
NORTH CENTRAL NEBRASKA

CITY           SKY/WX    TMP DP  RH WIND       PRES   REMARKS
VALENTINE      MOSUNNY   52  26  36 SW14      30.13S
BROKEN BOW     CLOUDY    46  27  47 S17G26    30.19F
ORD            CLOUDY    45  24  43 S17G25    30.20F
$$

NEZ041-046>049-061>064-073>077-083>087-302300-
SOUTH CENTRAL NEBRASKA

CITY           SKY/WX    TMP DP  RH WIND       PRES   REMARKS
GRAND ISLAND   CLOUDY    44  25  47 S13G22    30.27F
HASTINGS       CLOUDY    44  23  43 S14G20    30.27F
KEARNEY *      CLOUDY    45  25  45 S17       30.24F
$$

NEZ011>018-030>034-042>045-302300-
NORTHEAST NEBRASKA

CITY           SKY/WX    TMP DP  RH WIND       PRES   REMARKS
NORFOLK        MOSUNNY   44  27  51 S21G28    30.24F
COLUMBUS *     PTSUNNY   43  27  52 S16       30.30F
TEKAMAH        SUNNY     41  26  55 S16       30.33F
$$

NEZ050>053-065>068-078-088>093-302300-
SOUTHEAST NEBRASKA

CITY           SKY/WX    TMP DP  RH WIND       PRES   REMARKS
LINCOLN        CLOUDY    41  26  55 S14       30.35F
OMAHA EPPLEY   PTSUNNY   36  24  62 S13       30.36F WCI  27
FALLS CITY     PTSUNNY   39  23  52 S7        30.40F WCI  34
$$

NEZ044-045-051>053-067-302300-
OMAHA AREA

CITY           SKY/WX    TMP DP  RH WIND       PRES   REMARKS
OMAHA EPPLEY   PTSUNNY   36  24  62 S13       30.36F WCI  27
OFFUTT AFB     PTSUNNY   37  24  60 S10       30.35F WCI  29
$$


USA.gov is the U.S. government's official web portal to all federal, state and local government web resources and services.